User: anonymous   Login
Location: Unspecified
(0.0000°N, 0.0000°E)
Time: 12:59:55
(UTC+00:00)
Language:

JUGNU - Orbit

View from above orbital plane
View from above orbital plane
View from above satellite
View from above satellite

Ground track
Ground track

The orbit data is extracted from the following two-line orbital elements,

1 37839U 11058B   21015.83839990  .00000326  00000-0  31490-4 0  9995
2 37839  19.9623  74.7547 0018719 209.3983 307.4069 14.12700578478852
Epoch (UTC): 15 January 2021 20:07:17
Eccentricity: 0.0018719
inclination: 19.9623°
perigee height: 836 km
apogee height: 863 km
right ascension of ascending node: 74.7547°
argument of perigee: 209.3983°
revolutions per day: 14.12700578
mean anomaly at epoch: 307.4069°
orbit number at epoch: 47885

The dashed part of the orbit path shows where the satellite is in the earth's shadow,  

DLR